Miscellaneous Local Product
Issued by NWS North Platte, NE

Home | Current Version | Previous Version | Text Only | Print | Product List | Glossary On
Versions: 1 2 3 4 5 6 7 8 9 10 11 12 13 14 15 16 17 18 19 20 21 22 23 24 25 26 27 28 29 30 31 32 33 34 35 36 37 38 39 40 41 42 43 44 45 46 47 48 49 50
000
AXUS43 KLBF 030710
MISLBF


WESTERN AND NORTH CENTRAL NEBRASKA HOURLY WEATHER ROUNDUP
NATIONAL WEATHER SERVICE NORTH PLATTE NE
200 AM CDT WED SEP 03 2014

***STATIONS NOT REPORTING VARIABLES SUCH AS SKY/WEATHER OR
PRESSURE ARE PROVIDED BY THE NEBRASKA DEPARTMENT OF
ROADS...RAWS...AND APRS NETWORKS...AND ARE NOT UNDER
NATIONAL WEATHER SERVICE QUALITY CONTROL***

...OBSERVATIONS IN AND NEAR THE EASTERN PANHANDLE OF NEBRASKA...

CITY           SKY/WX    TMP DP  RH WIND       PRES   REMARKS
PINE RIDGE     CLEAR     65  57  75 S8        29.75F
CHADRON        CLEAR     55  49  80 CALM      29.74F
ALLIANCE       CLEAR     67  55  65 S15       29.82F
SIDNEY         CLEAR     67  54  63 S12       29.90F
WHITECLAY        N/A     66  56  68 S8          N/A
CRESCENT LAKE    N/A     68  56  64 S8          N/A
LISCO            N/A     73  55  53 E10         N/A
BIG SPRINGS      N/A     68  61  78 S12         N/A
$$

...OBSERVATIONS IN NORTH CENTRAL NEBRASKA...

CITY           SKY/WX    TMP DP  RH WIND       PRES   REMARKS
VALENTINE      CLEAR     70  62  76 S17G25    29.78F
THEDFORD       CLEAR     70  65  85 S15       29.85S
AINSWORTH      CLEAR     67  62  84 S17       29.81F
O`NEILL        CLEAR     67  61  81 S9        29.85S
ORD            CLEAR     65  60  84 SE7       29.86S
BROKEN BOW     CLEAR     63  60  90 S3        29.87F
SPRINGVIEW       N/A     69  62  79 SW10G21     N/A
ROSE             N/A     70  67  89 E12         N/A
NEWPORT          N/A     70  64  83 S17         N/A
COMSTOCK         N/A     69  66  90 S8          N/A
CHAMBERS         N/A     65  59  82 S12         N/A
EWING            N/A     64  60  87 S3          N/A
$$

...OBSERVATIONS IN SOUTHWEST NEBRASKA AND FAR NORTHEAST COLORADO...

CITY           SKY/WX    TMP DP  RH WIND       PRES   REMARKS
WRAY             N/A     69  62  78 S13G18    29.89F
HOLYOKE        FAIR      64  61  88 S5        29.89F
IMPERIAL       CLEAR     68  62  81 S10       29.89F
OGALLALA       CLEAR     67  61  81 S10G18    29.86S
NORTH PLATTE   CLEAR     69  64  84 SE9       29.87F
MCCOOK         CLEAR     69  66  90 S9        29.89F
LEXINGTON      CLEAR     69  66  90 S9        29.89F
PAXTON           N/A     68  63  83 S12         N/A
SUTHERLAND       N/A     70  67  89 S16         N/A
BRADY            N/A     68  63  84 CALM        N/A
GOTHENBURG       N/A     71  62  74 S6          N/A
CALLAWAY         N/A     66  64  95 S12         N/A
$$

...SOME WEATHER OBSERVATIONS FROM AROUND THE REGION...

CITY           SKY/WX    TMP DP  RH WIND       PRES   REMARKS
DENVER         PTCLDY    64  52  64 S13       29.96F
LARAMIE        CLEAR     50  36  58 SW8       30.08S
CHEYENNE       CLEAR     58  41  53 W10       29.99F
SCOTTSBLUFF    CLEAR     61  54  77 E8        29.82F
RAPID CITY     CLEAR     52  46  80 CALM      29.73F
PIERRE         CLEAR     62  58  86 E8        29.70F
WINNER         FAIR      71  61  70 S18       29.74F
SIOUX FALLS    CLEAR     66  57  72 S10       29.84F
OMAHA          CLEAR     66  58  75 SE6       29.92S
GRAND ISLAND   CLEAR     66  61  84 S10       29.90S
KANSAS CITY    CLEAR     70  68  93 SE7       29.96F
WICHITA        MOCLDY    74  68  81 SE13      29.94R
HAYS           CLOUDY    73  68  83 SE15      29.91S
LIBERAL        CLEAR     72  66  83 SE7       29.92F
GOODLAND       PTCLDY    67  64  90 S9        29.94F
$$



USA.gov is the U.S. government's official web portal to all federal, state and local government web resources and services.